Calhan, CO

8:31 AM MST on January 17, 2017 (GMT -0700)
Ellicott

Weather History for KABH - August, 2014

Change the Weather History Date:

Sunday, August 17, 2014

  Actual Average (KCOS) Record (KCOS)
Temperature  
Mean Temperature 72 °F -  
Max Temperature 89 °F 82 °F 95 °F (1962)
Min Temperature 54 °F 56 °F 42 °F (1920)
Cooling Degree Days 7    
Growing Degree Days 22 (Base 50)    
Moisture  
Dew Point 41 °F    
Average Humidity 39    
Maximum Humidity 75    
Minimum Humidity 13    
Precipitation  
Precipitation 0.00 in - - ()
Sea Level Pressure  
Sea Level Pressure 29.99 in    
Wind  
Wind Speed 6 mph (WSW)    
Max Wind Speed 33 mph    
Max Gust Speed 52 mph    
Visibility 10 miles    
Events Rain , Thunderstorm    
Averages and records for this station are not official NWS values.
T = Trace of Precipitation, MM = Missing Value Source: NWS Daily Summary

Daily Weather History Graph

Daily Weather History Graph

Search for Another Location

Airport or City:

Trip Planner

Search our weather history database for the weather conditions in past years. The results will help you decide how hot, cold, wet, or windy it might be!

Date:

Astronomy

Aug. 17, 2014 Rise Set
Actual Time 6:12 AM MDT 7:48 PM MDT
Civil Twilight 5:44 AM MDT 8:17 PM MDT
Nautical Twilight 5:10 AM MDT 8:51 PM MDT
Astronomical Twilight 4:34 AM MDT 9:27 PM MDT
Moon No Moon Rise 1:56 PM MDT
Length of Visible Light 14h 32m
Length of Day
13h 36m
Waning Gibbous, 48% of the Moon is Illuminated
Aug 17
Waning Gibbous
Aug 25
New
Sep 2
First Quarter
Sep 8
Full
Sep 15
Last Quarter

Hourly Weather History & Observations

Time (MDT) Temp. Dew Point Humidity Pressure Visibility Wind Dir Wind Speed Gust Speed Precip Events Conditions
12:56 AM 59.0 °F 48.0 °F 67% 29.97 in 10.0 mi SSE 4.6 mph - N/A   Clear
1:56 AM 57.9 °F 46.9 °F 67% 29.96 in 10.0 mi SSE 5.8 mph - N/A   Clear
2:56 AM 57.9 °F 46.0 °F 65% 29.96 in 10.0 mi Calm Calm - N/A   Clear
3:56 AM 57.0 °F 46.9 °F 69% 29.96 in 10.0 mi Calm Calm - N/A   Clear
4:56 AM 55.9 °F 44.1 °F 64% 29.96 in 10.0 mi Calm Calm - N/A   Clear
5:56 AM 57.9 °F 44.1 °F 60% 29.97 in 10.0 mi Calm Calm - N/A   Clear
6:56 AM 60.1 °F 43.0 °F 53% 29.98 in 10.0 mi North - - N/A   Clear
7:56 AM 70.0 °F 46.9 °F 44% 29.99 in 10.0 mi Calm Calm - N/A   Clear
8:56 AM 79.0 °F 43.0 °F 28% 29.99 in 10.0 mi Calm Calm - N/A   Clear
9:56 AM 82.9 °F 42.1 °F 24% 29.99 in 10.0 mi NNW 9.2 mph - N/A   Clear
10:56 AM 84.0 °F 37.9 °F 19% 29.99 in 10.0 mi WNW 8.1 mph - N/A   Clear
11:56 AM 86.0 °F 34.0 °F 16% 29.98 in 10.0 mi Calm Calm - N/A   Clear
12:56 PM 86.0 °F 30.9 °F 14% 29.97 in 10.0 mi West 6.9 mph - N/A   Clear
1:56 PM 88.0 °F 30.9 °F 13% 29.95 in 10.0 mi SSW 5.8 mph - N/A   Clear
2:56 PM 88.0 °F 33.1 °F 14% 29.94 in 10.0 mi SW 6.9 mph - N/A   Clear
3:56 PM 89.1 °F 33.1 °F 14% 29.91 in 10.0 mi East 5.8 mph - N/A   Clear
4:26 PM 86.0 °F 33.8 °F 15% 30.17 in 10.0 mi SSW 8.1 mph - N/A Thunderstorm Thunderstorm
4:48 PM 75.2 °F 41.0 °F 29% 30.20 in 10.0 mi NNW 29.9 mph 50.6 mph 0.00 in Rain , Thunderstorm Light Thunderstorms and Rain
4:56 PM 75.9 °F 39.9 °F 27% 29.99 in 10.0 mi North 33.4 mph 51.8 mph 0.00 in Rain , Thunderstorm Light Thunderstorms and Rain
5:31 PM 75.2 °F 42.8 °F 31% 30.21 in 10.0 mi NW 29.9 mph 38.0 mph 0.00 in Rain Light Rain
5:56 PM 78.1 °F 36.0 °F 22% 30.00 in 10.0 mi North 11.5 mph 23.0 mph 0.00 in Rain Light Rain
6:56 PM 75.0 °F 41.0 °F 29% 29.96 in 10.0 mi South 16.1 mph - 0.00 in Rain Light Rain
7:56 PM 71.1 °F 42.1 °F 35% 29.96 in 10.0 mi SSW 6.9 mph - 0.00 in   Clear
8:56 PM 68.0 °F 44.1 °F 42% 29.96 in 10.0 mi SSW 10.4 mph - 0.00 in   Clear
9:56 PM 62.1 °F 46.0 °F 56% 29.98 in 10.0 mi Calm Calm - N/A   Clear
10:56 PM 60.1 °F 46.9 °F 62% 29.96 in 10.0 mi West 6.9 mph - N/A   Clear
11:56 PM 54.0 °F 46.0 °F 75% 29.95 in 10.0 mi NE 3.5 mph - N/A   Clear